Weather in Homs

Syria     34°43′42″N   36°43′30″E
temp.,
°C
wind,
m/s
gust,
m/s
humid.,
%
clouds,
%
prec.,
mm/h
press.,
hPa
HPBL,
m
6 march, sat
sat623:00+9w59880 0.0 1025261
02:00+8wsw34900 0.0 1025115
05:00+7ssw23900 0.0 102438
08:00+11s12610 0.0 1025209
11:00+16sw12320 0.0 1024732
14:00+19w34240 0.0 10211219
17:00+15w46440 0.0 1021244
20:00+12wsw336130 0.0 102190
7 march, sun
sun723:00+10sw237255 0.0 102159
02:00+9w237231 0.0 101967
05:00+7sw22821 0.0 101951
08:00+11wsw34600 0.0 1019286
11:00+16w56320 0.0 1018985
14:00+16w78380 0.0 1016999
17:00+12w710630 0.0 1015673
20:00+10w612770 0.0 1016527
8 march, mon
mon823:00+9w511850 0.0 1016438
02:00+9w510921 0.0 1015395
05:00+9wsw49858 0.0 1014319
08:00+12wsw510594 0.0 1015775
11:00+16w1012450 0.0 10141757
14:00+16w1315540 0.0 10121226
17:00+13w1114700 0.0 1013989
20:00+11w815810 0.0 1015584
9 march, tue
tue923:00+10w7138623 0.0 1016530
02:00+9w5119031 0.0 1016428
05:00+9w489123 0.0 1016271
08:00+12w477513 0.0 1018746
11:00+16sw343813 0.0 10171270
14:00+18w55358 0.0 10151513
17:00+14w4558100 0.0 1016466
20:00+14wsw1163100 0.0 1017178
10 march, wed
wed1023:00+13se476446 0.0 1016131
02:00+12ese236046 0.0 101548
05:00+10ne3465100 0.0 101472
08:00+13se2455100 0.0 1015246
11:00+17wnw1149100 0.1 1013310
14:00+22e683475 0.1 10091080
17:00+18nnw9115037 0.0 1006316
20:00+14nw356121 0.0 1006118